Regional Weather Roundup
Issued by NWS

Home | Current Version | Previous Version | Graphics & Text | Print | Product List | Glossary On
Versions: 1 2 3 4 5 6 7 8 9 10 11 12 13 14 15 16 17 18 19 20 21 22 23 24 25 26 27 28 29 30 31 32 33 34 35 36 37 38 39 40 41 42 43 44 45 46 47 48 49 50
000
ASUS43 KMKX 200700
RWRWI

WISCONSIN REGIONAL WEATHER ROUNDUP
NATIONAL WEATHER SERVICE MILWAUKEE/SULLIVAN WI
100 AM CST MON FEB 20 2017

NOTE: "FAIR" INDICATES FEW OR NO CLOUDS BELOW 12,000 FEET WITH NO
SIGNIFICANT WEATHER AND/OR OBSTRUCTIONS TO VISIBILITY.

WIZ001-002-006>008-014>016-023>028-200800-
NORTHWEST WISCONSIN

CITY           SKY/WX    TMP DP  RH WIND       PRES   REMARKS
SUPERIOR ARPT  CLOUDY    35  33  94 NE13      29.96F WCI  26
ASHLAND        PTCLDY    33  31  92 E6        29.98F WCI  28
HAYWARD        PTCLDY    50  33  52 SE15G23   29.94F
SIREN          CLOUDY    50  34  54 SE8       29.90R
CUMBERLAND     CLOUDY    43  32  65 SE8       29.93S
RICE LAKE      CLOUDY    46  33  61 SE10      29.95S
CHETEK         CLOUDY    44  34  68 E10       29.95S
LADYSMITH      CLOUDY    49  35  58 SE9       30.00R
EAU CLAIRE     NOT AVBL
MENOMONIE      PTCLDY    45  35  69 E7        29.95R
NEW RICHMOND   PTCLDY    48  36  61 SE7G16    29.90S
OSCEOLA        CLOUDY    49  37  62 SE9       29.92R
$$

WIZ003>005-009-010-017-018-200800-
NORTH CENTRAL WISCONSIN

CITY           SKY/WX    TMP DP  RH WIND       PRES   REMARKS
MANITOWISH WTR MOCLDY    41  32  69 SE7       30.04S
ARBOR VITAE    PTCLDY    42  33  72 SE9       30.05S
WOODRUFF       PTCLDY    42  33  72 SE9       30.05S
RHINELANDER    PTCLDY    37  31  78 E8        30.07R WCI  31
EAGLE RIVER    CLOUDY    38  29  71 SE6       30.07S WCI  33
LAND O LAKES   CLOUDY    39  31  71 SE7       30.09S WCI  34
PHILLIPS       CLOUDY    43  33  66 SE6       30.01S
TOMAHAWK       PTCLDY    40  32  73 SE5       30.05S
MEDFORD        CLOUDY    44  32  63 SE10      30.02R
MERRILL        NOT AVBL
$$

WIZ029-030-035-036-043>047-200800-
CENTRAL WISCONSIN

CITY           SKY/WX    TMP DP  RH WIND       PRES   REMARKS
WAUSAU         CLOUDY    38  31  76 E8        30.06S WCI  32
MOSINEE        PTCLDY    37  32  81 E9        30.07S WCI  31
MARSHFIELD     CLOUDY    42  32  67 E10       30.03S
STEVENS POINT  CLOUDY    37  31  77 E7        30.09R WCI  32
WAUPACA        PTCLDY    38  31  75 CALM      30.12R
WAUTOMA        NOT AVBL
WISC RAPIDS    PTCLDY    41  33  73 SE9       30.06S
CAMP DOUGLAS   NOT AVBL
$$

WIZ011>013-019>022-031-037>040-048>050-200800-
NORTHEAST WISCONSIN

CITY           SKY/WX    TMP DP  RH WIND       PRES   REMARKS
ANTIGO         CLOUDY    36  31  81 SE16G22   30.09F WCI  26
SHAWANO        CLOUDY    33  31  90 E3        30.14S
OCONTO         CLOUDY    30  28  92 CALM      30.15S
STURGEON BAY   CLOUDY    37  33  85 SE7       30.17R WCI  32
GREEN BAY      CLOUDY    35  32  88 NE7       30.14S WCI  29
MANITOWOC      NOT AVBL
APPLETON       PTCLDY    37  28  70 E5        30.11R WCI  34
CLINTONVILLE   PTCLDY    34  30  86 NE3       30.13S
OSHKOSH        CLOUDY    36  29  75 E3        30.11S
$$

WIZ032>034-041-042-053>061-200800-
SOUTHWEST WISCONSIN

CITY           SKY/WX    TMP DP  RH WIND       PRES   REMARKS
LA CROSSE      CLOUDY    52  37  56 SE3       29.98S
SPARTA         PTCLDY    47  37  68 CALM      30.02S
VIROQUA        CLOUDY    48  37  65 CALM      30.00S
BOSCOBEL       CLOUDY    48  37  65 VRB3      30.02S
PRAIRIE DU CHI MOCLDY    50  37  61 E5        29.99F
PLATTEVILLE    MOCLDY    43  38  81 E9        30.03F
$$

WIZ056-057-062-063-064-067-068-200800-
SOUTH CENTRAL WISCONSIN

CITY           SKY/WX    TMP DP  RH WIND       PRES   REMARKS
REEDSBURG      CLOUDY    45  37  73 E3        30.04S
BARABOO/DELLS  CLOUDY    47  36  64 E3        30.05S
LONE ROCK      NOT AVBL
MINERAL POINT  CLOUDY    50  37  62 SE8       30.03F
MADISON        PTCLDY    44  34  67 SE6       30.07S
MIDDLETON      PTCLDY    43  35  75 E3        30.07S
WATERTOWN      CLOUDY    40  31  69 E9        30.09S WCI  34
MONROE         CLOUDY    46  37  71 SE7       30.05S
JANESVILLE     CLOUDY    43  36  75 E8        30.08R
$$

WIZ051-052-058>065-066-070>072-200800-
SOUTHEAST WISCONSIN

CITY           SKY/WX    TMP DP  RH WIND       PRES   REMARKS
MILWAUKEE      CLOUDY    38  31  76 CALM      30.14R
WAUKESHA         N/A     32  30  93 CALM      30.14R
MILWAUKEE/TIMM CLOUDY    32  28  86 CALM      30.14S
RACINE         CLOUDY    39  33  79 CALM      30.15R
KENOSHA        CLOUDY    36  31  82 E6        30.13R WCI  31
FOND DU LAC    CLOUDY    40  30  67 SE10      30.11S WCI  33
SHEBOYGAN      CLOUDY    31  29  92 CALM      30.14S
WEST BEND      CLOUDY    32  30  93 CALM      30.14R
JUNEAU         CLOUDY    41  30  64 E12       30.11S
$$

LSZ147-162-200800-
LAKE SUPERIOR

STATION/POSITION TIME  TEMP    WIND        PRES    WAVE
                       AIR SEA DIR/SP/G            HT/PER
                 (UTC) (F)     (DEG/KT/KT) (MB)    (FT/S)
DEVILS ISLAND    0600   36      60/ 10/ 12 1016.8R
PORT WING        0640   34      40/ 11/ 14 1014.9F
SAXON HARBOR     0630   31     320/  3/  4 1015.2S
$$

LMZ867-665-643>646-200800-
LAKE MICHIGAN

STATION/POSITION TIME  TEMP    WIND        PRES    WAVE
                       AIR SEA DIR/SP/G            HT/PER
                 (UTC) (F)     (DEG/KT/KT) (MB)    (FT/S)
CHAMBERS ISLAND  0630   30        CALM     1021.0S
NORTHPORT PIER   0640   36     140/  3/  5 1021.7S
SISTER BAY       0605   39     140/  8/ 12   N/A
ALGOMA LAKESHORE 0555           80/  4/  4   N/A
KEWAUNEE LAKESHO 0630   33      CALM  /  1 1020.7R
SHEBOYGAN LAKESH 0600   38      CALM  /  1 1021.1R
PORT WASHINGTON  0640   36     280/  2/  2 1021.7S
MILWAUKEE LAKESH 0630   38      40/  7/  7   N/A
KENOSHA   LAKESH 0600   37        CALM     1020.0
$$

TC  - TEMPERATURE IN CELSIUS
VSB - VISIBILITY IN STATUTE MILES
WCI - WIND CHILL INDEX
HX  - HEAT INDEX




USA.gov is the U.S. government's official web portal to all federal, state and local government web resources and services.